Wind_Speed
9 9 7 2 3 2 3 6 5 10 7 10 11 10 9 5 2 4 29 26 30 26 23 19 16 13 13 13 13 12 12 12 12 10 12 12 12 13 12 13 13 13 12 12 12 12 12 13 14
12 11 6 2 2 4 4 5 6 12 15 19 16 18 12 6 8 17 24 32 29 26 23 21 17 16 15 15 13 13 12 12 10 12 12 12 12 12 13 12 13 13 12 13 12 12 12 11 14
14 8 2 3 2 3 7 7 7 19 21 14 8 10 8 11 18 20 36 34 28 28 23 22 18 17 16 14 13 13 12 12 12 12 12 12 13 12 13 12 13 13 13 13 12 12 11 12 12
7 1 3 3 1 5 7 13 17 13 19 17 15 11 11 15 16 28 38 33 32 29 24 22 19 17 16 15 15 14 13 13 13 13 13 12 11 12 12 12 12 13 12 12 12 13 12 13 14
11 2 1 2 6 7 7 15 2 17 12 19 23 15 9 25 36 39 39 37 37 29 26 22 19 18 17 15 15 14 14 14 13 13 13 12 11 11 11 12 12 12 12 11 10 10 12 14 14
3 3 2 5 12 12 10 21 17 15 17 21 21 15 7 33 34 35 38 38 32 30 26 22 19 18 17 15 15 15 14 14 14 13 12 12 11 11 11 11 11 12 12 12 11 10 10 13 16
5 1 4 8 13 8 12 15 16 16 21 17 20 18 15 23 34 34 39 38 33 30 25 22 20 18 17 15 15 15 15 15 15 13 12 10 12 10 10 11 11 11 11 10 9 9 10 12 17
8 3 8 3 2 5 7 11 8 15 16 21 20 10 17 25 34 33 39 39 37 29 25 22 20 18 17 16 14 14 15 15 15 12 11 11 11 10 10 11 11 11 10 8 7 5 5 8 9
18 10 11 3 7 1 6 6 4 4 17 19 6 20 30 36 33 38 37 37 34 31 27 23 22 19 18 16 15 14 14 14 14 11 11 11 11 10 10 10 11 10 10 9 9 6 5 7 9
9 9 8 7 7 6 3 10 14 6 21 15 18 24 34 35 31 33 34 31 31 32 29 25 23 22 17 15 17 15 16 15 13 13 12 6 11 11 11 13 13 13 9 8 8 8 6 6 5
10 15 9 11 16 6 20 16 5 15 10 21 23 26 24 26 26 28 33 34 35 36 33 29 28 25 22 17 19 18 18 17 13 8 8 8 14 15 12 14 12 15 11 6 5 0 7 6 9
12 18 19 14 14 19 12 18 4 8 12 20 26 29 23 20 17 27 30 32 33 34 33 34 29 28 24 21 21 18 16 15 13 10 8 9 11 8 8 10 13 11 10 9 8 6 3 1 12
16 14 16 16 17 20 16 22 16 22 18 6 22 25 22 20 22 24 33 35 33 27 37 34 31 27 24 22 17 18 17 18 18 13 10 11 7 6 11 10 11 14 7 9 19 11 1 4 9
12 14 14 11 9 7 21 22 22 9 3 9 24 25 20 19 22 23 30 30 30 35 39 33 29 25 17 13 12 15 19 18 18 13 8 8 7 8 9 8 9 12 10 10 6 14 11 6 8
15 10 12 9 5 5 14 13 11 7 9 12 18 21 21 18 24 19 30 30 31 33 36 32 26 24 16 14 18 24 25 16 18 16 11 10 9 8 6 2 7 12 12 11 14 11 12 8 10
8 8 7 9 8 11 12 10 11 12 11 13 6 14 20 20 24 21 32 35 33 35 37 32 27 22 18 18 13 15 9 17 16 12 11 11 8 7 7 4 6 10 9 10 11 11 7 10 10
7 7 8 11 14 7 7 15 17 18 13 8 8 9 9 18 22 26 35 36 36 40 36 30 26 21 19 17 15 11 15 19 16 12 14 10 7 7 9 10 6 6 10 10 12 10 8 7 6
8 8 9 9 12 13 12 15 16 16 20 19 9 8 15 15 15 24 35 36 38 37 36 31 30 25 20 17 19 12 17 19 19 16 16 13 8 6 7 9 8 3 10 7 8 11 6 5 8
14 15 13 11 12 9 15 18 24 21 19 23 21 18 18 20 17 24 36 37 35 39 38 31 35 30 26 21 21 14 17 20 19 20 15 15 13 6 7 6 9 8 8 10 7 5 3 5 5
17 16 16 14 14 9 9 13 20 18 21 25 23 14 15 21 18 20 29 36 34 39 38 35 34 33 30 27 24 17 14 18 14 19 15 14 13 10 6 10 9 7 9 8 6 8 6 8 6
15 11 13 12 19 14 6 4 9 12 8 9 7 9 4 24 21 18 21 34 33 37 40 38 33 38 32 30 25 19 15 17 16 20 20 17 13 11 9 9 7 9 7 8 6 8 6 4 5
9 10 12 14 10 5 5 4 6 12 8 15 12 8 5 12 23 19 20 31 34 38 43 39 37 38 36 31 30 25 18 18 16 27 23 19 15 13 9 10 9 9 7 5 7 5 2 5 5
12 10 9 10 9 5 18 3 6 16 7 7 15 9 11 16 19 24 24 29 35 38 40 42 39 40 39 32 31 28 21 19 18 22 27 20 17 15 13 11 7 11 7 10 9 3 6 1 1
6 7 11 7 2 5 11 2 10 11 17 9 12 18 7 25 21 26 36 33 33 36 38 42 41 41 41 38 31 31 27 24 19 23 26 25 22 18 17 14 7 6 11 9 10 7 6 5 4
7 4 3 4 5 10 8 7 10 6 21 26 30 26 33 32 13 22 25 29 31 37 39 41 41 41 44 41 36 33 32 30 19 22 24 30 25 22 18 18 14 11 11 9 9 9 6 5 5
7 7 5 7 5 9 9 8 9 12 14 25 31 33 23 23 19 27 27 34 35 39 41 41 42 39 43 45 44 36 34 33 29 13 26 30 27 25 26 21 20 15 13 10 10 9 10 8 8
9 7 8 6 9 7 6 9 18 11 9 18 24 21 21 21 20 23 26 36 38 37 42 43 43 40 40 43 44 41 37 37 33 27 18 29 26 26 24 28 25 20 17 14 13 10 9 10 9
9 5 3 3 7 12 5 11 6 6 13 14 20 24 23 15 8 10 4 28 40 40 38 38 41 42 41 39 42 41 40 40 38 32 23 22 25 20 16 32 29 25 21 17 16 14 12 13 11
12 3 4 2 3 10 9 7 9 8 7 18 19 27 24 16 16 13 8 13 28 40 38 39 38 41 39 41 38 39 41 39 36 33 31 26 23 19 15 27 31 26 23 20 19 17 15 17 16
15 12 9 4 8 4 3 6 23 13 19 31 12 25 26 21 14 9 7 14 20 33 39 42 40 42 43 42 38 39 39 40 42 36 36 31 29 25 15 26 29 28 26 23 22 21 20 17 19
Wind_Direction
194 172 157 114 240 224 288 301 260 143 98 107 95 102 106 59 169 160 145 146 148 155 157 148 150 147 145 140 138 133 119 117 116 111 105 105 97 102 97 95 94 100 103 108 110 104 106 107 108
177 169 176 262 219 111 289 237 220 99 106 113 113 99 74 86 92 128 137 140 149 151 147 149 151 147 141 142 139 133 127 122 125 113 112 104 106 104 100 95 101 98 98 104 105 107 108 112 112
176 191 233 201 114 162 184 233 83 120 114 112 99 79 66 111 118 135 137 136 143 140 151 147 147 144 140 142 137 131 129 125 126 121 119 115 115 109 106 101 98 97 104 107 107 107 112 111 111
183 163 276 21 146 231 206 187 135 99 90 103 116 74 94 123 114 131 134 138 135 144 143 141 142 143 141 142 139 135 133 132 128 122 122 126 116 110 108 102 102 101 106 111 111 106 109 113 108
205 190 311 148 290 276 268 272 301 123 92 102 111 119 99 114 128 139 140 135 137 143 141 144 147 140 140 136 136 135 129 130 127 124 129 121 120 118 110 108 107 107 104 104 112 113 109 114 112
190 227 215 95 285 277 286 269 133 107 119 115 111 117 117 138 144 151 140 134 145 139 141 140 144 141 141 138 134 132 130 128 131 131 130 135 131 122 119 115 112 108 100 99 110 115 114 116 120
240 193 252 122 225 273 313 295 140 128 127 130 134 120 145 151 160 157 134 134 133 138 141 144 141 139 137 138 137 131 131 132 137 139 142 139 127 123 119 115 112 110 109 105 106 109 110 114 129
219 240 292 41 269 160 252 336 22 139 135 139 133 140 161 166 168 146 134 133 135 138 142 143 141 143 144 141 137 134 132 135 140 148 144 128 117 107 110 117 118 114 105 97 94 86 81 109 121
247 254 278 26 339 237 10 345 309 302 128 156 186 151 159 164 164 136 133 131 134 138 144 148 146 144 142 147 139 142 139 140 139 142 133 123 118 109 111 116 118 114 114 118 103 78 105 129 124
219 241 244 135 293 150 205 61 313 244 148 112 119 142 164 168 168 145 137 140 144 148 149 151 150 153 153 152 148 145 142 132 134 140 139 139 131 131 117 119 121 120 117 113 103 116 124 126 113
245 245 243 195 209 154 137 147 220 348 169 141 147 152 166 176 159 141 146 146 153 158 157 158 157 159 155 154 146 145 146 144 145 149 157 124 138 143 114 114 115 111 112 115 99 326 177 70 93
235 245 255 249 191 173 158 137 230 352 298 146 153 156 167 162 162 148 152 148 156 161 162 165 160 158 171 159 153 152 159 162 156 133 113 176 164 180 139 145 132 133 158 158 138 186 90 21 102
247 253 264 275 159 183 152 156 153 177 224 140 150 160 171 156 169 155 148 153 163 161 157 161 160 170 176 163 169 187 172 165 162 155 152 162 144 135 154 137 166 156 154 182 174 190 163 207 108
256 253 259 269 252 170 134 144 156 222 176 198 158 166 161 159 176 153 145 158 138 143 152 154 153 156 162 154 178 164 179 185 161 159 132 139 181 157 152 134 130 152 137 188 177 156 170 178 135
274 298 303 278 275 246 125 152 98 74 65 163 166 159 162 164 186 164 151 152 147 151 151 146 148 157 161 137 136 157 144 136 157 160 157 151 146 162 171 141 124 142 136 133 166 166 153 153 170
299 292 274 285 251 257 163 123 131 121 123 141 144 169 168 172 192 172 154 157 166 153 157 154 151 163 158 158 143 157 160 170 155 174 155 150 142 150 146 125 132 127 137 148 166 152 125 148 162
282 256 264 265 268 245 204 122 169 155 163 64 176 192 187 184 194 160 157 160 171 158 158 158 166 162 162 169 171 142 158 163 164 165 153 149 158 171 168 133 131 135 140 130 145 159 140 138 120
253 257 234 244 253 244 220 138 173 169 143 117 305 274 189 206 199 166 162 165 171 162 160 164 166 170 174 178 179 163 181 170 175 175 165 164 164 143 144 136 111 79 148 141 121 144 155 162 149
269 279 288 279 246 241 202 151 177 169 138 153 186 246 209 194 206 185 164 165 168 162 163 163 167 172 169 180 183 188 162 167 167 168 171 157 170 161 134 150 141 121 149 139 132 130 172 177 172
254 269 281 288 289 187 228 167 165 168 162 168 186 183 222 185 192 193 170 167 165 167 168 169 172 174 174 177 186 195 188 182 197 189 182 172 170 177 162 156 150 143 144 140 173 148 137 178 162
247 244 270 278 301 310 235 76 147 194 161 174 155 176 316 180 189 192 176 171 166 169 171 176 176 180 177 176 183 194 199 195 188 187 180 175 168 183 180 162 153 156 160 168 166 142 146 148 167
257 262 259 268 290 279 26 281 212 183 164 167 165 80 350 346 186 191 183 174 173 172 175 178 180 185 182 180 185 198 199 197 191 177 184 183 178 193 189 171 174 165 162 163 159 167 233 271 206
250 278 282 283 287 306 295 26 263 158 148 213 143 79 304 296 243 190 189 178 177 173 177 178 181 185 187 183 189 196 205 204 204 186 190 179 182 194 195 178 177 175 156 167 175 217 201 129 169
270 251 274 295 320 292 268 171 280 171 186 156 132 125 284 258 249 193 188 185 176 174 176 179 180 186 188 189 192 198 202 203 209 196 187 187 189 190 200 190 196 180 178 189 195 194 206 197 176
261 288 306 296 284 255 266 265 235 266 187 168 168 183 192 212 227 196 186 186 176 175 179 182 182 183 190 192 193 199 203 208 210 202 198 187 190 193 194 202 198 198 197 191 211 214 201 209 234
253 208 181 229 232 263 250 263 262 251 177 174 179 188 202 196 204 198 185 186 186 180 181 184 187 185 188 195 200 198 203 210 213 201 193 185 192 197 198 199 203 199 199 204 205 210 220 221 236
255 264 240 240 275 279 274 277 258 249 272 176 182 187 200 209 202 190 185 183 188 185 187 186 187 189 188 194 200 203 201 207 216 219 198 200 202 208 207 204 204 201 197 205 216 219 217 213 234
187 236 308 288 223 259 287 288 268 267 237 195 201 187 193 192 135 133 26 192 187 191 193 190 187 189 190 192 200 203 203 206 211 216 211 206 202 205 220 209 205 200 204 200 211 222 221 218 220
337 289 294 262 240 243 264 269 259 247 328 295 198 192 186 179 161 155 158 251 209 190 190 192 187 188 191 192 196 201 207 207 212 212 209 214 211 217 222 210 199 203 202 204 213 222 226 231 229
300 288 239 191 278 245 209 272 279 320 4 352 231 189 180 179 149 144 137 273 273 214 189 190 189 188 191 193 194 199 203 206 212 213 213 210 214 216 199 200 199 202 204 207 216 222 229 233 240
Height
780 782 785 787 798 794 798 790 771 752 757 744 748 756 767 771 777 806 793 799 803 809 815 818 821 823 825 827 828 831 833 834 836 838 839 840 841 842 843 843 843 843 844 844 845 846 847 848 849
778 782 785 784 801 812 802 774 767 750 744 745 751 757 769 787 775 785 794 800 804 810 815 819 822 824 826 828 829 832 834 836 837 839 839 840 841 842 843 843 844 844 844 845 846 847 848 849 849
778 780 785 789 791 809 797 771 762 742 744 749 757 760 769 785 781 785 794 799 805 811 816 819 822 825 827 829 831 833 834 837 839 839 840 841 842 843 844 845 845 846 846 847 848 849 849 850 852
777 781 781 791 798 782 773 763 750 747 747 750 758 778 776 780 781 786 794 800 806 812 817 820 823 826 828 830 832 834 835 837 839 841 842 843 844 846 847 848 849 849 849 849 850 850 851 852 854
776 780 793 793 795 780 761 754 741 747 752 757 758 784 782 783 788 792 795 801 806 812 818 821 824 827 829 831 833 834 836 838 840 842 843 845 847 849 849 850 851 851 851 852 852 852 852 853 856
780 775 792 803 792 777 763 753 743 748 750 760 768 779 786 785 789 794 797 801 806 812 818 822 826 828 830 832 834 835 837 839 841 843 844 846 848 849 850 852 853 853 854 854 854 855 854 855 858
777 781 787 791 792 778 772 755 745 755 756 767 763 782 786 784 787 792 797 801 807 812 818 823 827 829 831 833 835 836 838 840 842 844 846 847 849 850 852 854 856 856 856 856 855 855 857 858 858
761 772 774 774 781 779 756 770 748 748 761 757 761 783 789 778 784 791 797 802 808 813 819 823 827 830 832 834 836 838 840 841 843 845 847 851 852 853 855 856 856 858 859 859 859 859 861 861 861
753 779 783 779 773 781 767 776 764 743 758 760 758 762 770 775 781 790 797 803 809 814 819 824 827 831 833 835 837 839 842 843 846 847 851 853 854 854 856 857 857 859 859 857 858 860 862 864 867
758 774 768 761 765 774 769 775 765 757 752 766 766 768 773 777 780 786 795 801 807 813 818 823 827 830 833 835 837 840 843 845 847 848 850 852 855 855 855 858 856 858 859 859 861 861 863 867 869
752 763 746 745 747 758 772 778 782 779 760 759 770 767 772 776 778 785 794 797 802 809 815 821 824 829 832 834 837 840 843 845 847 850 852 855 856 855 857 861 859 859 858 861 867 866 866 869 869
757 739 734 727 732 755 771 769 777 782 775 752 755 760 769 772 777 785 791 795 801 808 813 818 822 827 831 834 836 840 843 846 847 850 851 854 857 856 858 861 862 859 855 863 859 866 871 871 872
745 735 725 719 727 737 751 764 771 767 765 759 760 764 768 773 778 783 790 794 799 805 811 817 822 827 830 834 838 840 843 846 848 849 851 852 856 856 858 860 862 861 859 860 866 871 867 870 868
731 728 724 719 721 720 745 759 770 762 759 764 762 766 767 772 777 781 788 793 798 804 811 816 821 826 831 835 837 840 842 845 848 850 851 853 854 856 858 859 860 861 863 863 864 868 869 869 867
727 741 730 725 720 723 728 769 766 763 760 767 766 765 771 773 777 781 785 790 797 805 809 814 819 825 831 833 838 839 841 843 846 849 851 855 857 857 859 859 861 862 864 866 867 864 867 869 869
743 743 763 732 724 718 727 777 774 761 765 771 775 771 774 774 778 780 785 790 797 804 809 814 820 825 830 833 837 839 841 842 844 848 850 853 855 856 859 859 860 863 866 864 866 865 866 868 869
754 779 763 748 720 722 727 783 776 761 767 784 783 780 779 777 777 779 783 789 796 801 808 812 818 823 828 833 836 838 841 843 844 847 850 852 853 857 858 859 861 863 863 863 864 866 866 868 869
779 768 758 755 728 722 732 758 774 774 771 779 798 792 780 780 776 776 782 788 793 800 805 810 816 822 828 832 835 838 841 842 845 846 849 851 853 855 856 857 860 861 861 862 863 865 866 867 869
752 754 756 736 716 723 729 754 759 769 774 778 788 791 783 778 776 776 781 786 792 797 802 807 814 821 826 830 833 837 840 841 843 845 848 850 852 854 855 857 859 861 862 863 864 866 867 867 868
751 755 752 730 712 722 727 748 747 753 761 761 760 771 776 772 775 775 779 783 788 793 799 805 811 819 823 828 832 835 838 840 842 844 847 849 850 852 854 856 859 861 862 862 863 866 866 867 868
749 757 750 748 722 715 721 760 756 753 752 758 752 759 774 763 771 772 776 780 785 789 795 801 807 814 820 825 830 834 836 839 841 844 846 848 850 852 854 856 857 859 860 861 863 864 866 867 869
765 732 730 733 744 773 725 785 763 757 759 756 758 761 772 783 762 768 772 777 780 785 791 797 803 810 816 821 825 829 832 834 837 840 844 847 849 851 854 855 857 858 859 861 862 864 866 866 867
745 727 734 736 745 751 740 770 749 747 767 761 748 756 766 768 769 759 765 770 776 782 787 793 798 806 812 816 820 825 829 832 835 838 842 844 847 850 852 854 856 858 860 862 863 864 865 866 866
718 732 739 742 755 786 755 763 753 759 741 754 753 747 752 761 765 751 757 766 773 779 784 789 794 800 806 812 816 820 824 828 831 835 839 842 846 848 851 853 855 857 859 861 863 864 865 866 866
728 752 793 797 794 783 753 762 749 722 719 728 737 745 727 738 749 747 753 758 765 772 778 783 788 793 800 806 811 815 819 823 828 830 834 837 843 845 848 851 854 856 857 859 861 863 864 864 865
742 754 790 806 803 779 753 769 740 707 705 716 723 722 723 718 730 735 742 749 757 765 771 777 782 787 792 799 805 810 814 819 824 828 831 834 838 841 845 848 851 854 856 857 859 861 862 863 864
745 759 739 768 764 776 760 737 712 703 703 708 720 726 725 726 724 726 730 738 749 759 764 768 776 782 787 792 799 805 809 814 818 823 828 831 834 837 841 845 847 851 853 855 857 859 860 862 863
732 728 768 766 795 794 769 756 751 719 712 704 706 711 710 720 719 722 740 739 737 749 760 768 772 777 781 788 793 799 804 809 813 819 823 827 831 835 836 839 844 847 850 853 855 857 858 860 861
754 751 749 757 766 778 787 763 715 711 710 702 686 688 694 707 708 717 730 735 738 740 752 763 768 772 778 782 788 794 799 805 810 814 819 823 827 829 833 835 840 845 848 850 852 855 856 858 859
751 757 751 776 778 764 769 763 691 703 706 697 674 671 678 689 694 706 703 719 738 746 742 751 759 764 768 775 782 787 794 800 805 809 814 818 822 826 829 832 836 840 844 847 849 851 853 855 856